{"data":{"norad_id":61699,"intl_designator":"2024-195N","name":"STARLINK-11296 [DTC]","alt_names":[],"object_type":"PAYLOAD","status":"ACTIVE","operator":null,"country":"US","launch_date":"2024-10-30","launch_site_code":"AFWTR","launch_vehicle":null,"mission":null,"orbit_class":"UNKNOWN","rcs_meters":null,"size_class":null,"mass_kg":null,"dimensions":null,"purposes":["comms"],"wikipedia_slug":null,"has_3d_model":false,"image_url":null,"decayed_at":null,"tle_current":{"epoch":"2026-05-25T00:01:22.109376Z","epoch_age_seconds":78082,"freshness":"FRESH","line1":"1 61699U 24195N   26145.00095034  .00001261  00000+0  15261-4 0  9999","line2":"2 61699  53.1596   9.7412 0000947 120.4197 239.6915 15.69710426 91027","mean_motion":15.69710426,"eccentricity":9.47e-5,"inclination_deg":53.1596,"raan_deg":9.7412,"arg_perigee_deg":120.4197,"mean_anomaly_deg":239.6915,"bstar":1.5261e-5,"rev_number":9102,"period_min":91.736665320461,"perigee_km":359.0874557894,"apogee_km":360.36360695284,"semimajor_km":6737.8625313711,"source":"CELESTRAK","updated_at":"2026-05-25T13:38:19.441707Z"}}}